Regional Weather Roundup
Issued by NWS

Home | Current Version | Previous Version | Text Only | Print | Product List | Glossary Off
Versions: 1 2 3 4 5 6 7 8 9 10 11 12 13 14 15 16 17 18 19 20 21 22 23 24 25 26 27

000
ASUS45 KCYS 201010
RWRWY

WYOMING REGIONAL WEATHER ROUNDUP
NATIONAL WEATHER SERVICE CHEYENNE WY
300 AM MST FRI JAN 20 2017

NOTE:  "FAIR" INDICATES FEW OR NO CLOUDS BELOW 12,000 FEET
WITH NO SIGNIFICANT WEATHER AND/OR OBSTRUCTIONS TO VISIBILITY.

WYZ001-201100-
YELLOWSTONE NATIONAL PARK

CITY           SKY/WX    TMP DP  RH WIND       PRES   REMARKS
LK YELLOWSTONE   N/A     21  18  88 CALM      29.57S
W YELLOWSTONE  NOT AVBL

$$
WYZ002>013-054>058-071-098>099-201100-
NORTHERN WYOMING

CITY           SKY/WX    TMP DP  RH WIND       PRES   REMARKS
JACKSON        CLOUDY    27  23  86 CALM      29.58R
CODY           FAIR      30  24  78 W3        29.51S
GREYBULL       CLOUDY    23  18  81 NE6       29.52S WCI  16
WORLAND        CLOUDY    28  25  88 CALM      29.51S
SHERIDAN       CLOUDY    36  30  79 W12       29.49S WCI  28
BUFFALO        CLOUDY    35  26  69 NW12      29.48R WCI  27
GILLETTE       FAIR      29  22  75 W13       29.46R WCI  19
HULETT         FAIR      25  19  80 SW8       29.45S WCI  16
NEWCASTLE      FAIR      23  19  86 N6        29.44S WCI  16

$$
WYZ014>020-022>026-101>103-201100-
CENTRAL WYOMING

CITY           SKY/WX    TMP DP  RH WIND       PRES   REMARKS
BIG PINEY      FAIR       5   3  91 N5        29.58F WCI  -4
PINEDALE       FAIR       9   7  92 NW5       29.58S WCI   0
DUBOIS         NOT AVBL
LANDER         MOCLDY    22  16  78 N6        29.50S WCI  14
RIVERTON       MOCLDY    19  13  77 W6        29.52S WCI  11
CASPER         CLOUDY    30  28  92 SW12      29.50S WCI  20
DOUGLAS        MOCLDY    34  25  69 NW10      29.47S WCI  26

$$
WYZ021-027>030-104>119-201100-
SOUTHERN WYOMING

CITY           SKY/WX    TMP DP  RH WIND       PRES   REMARKS
EVANSTON       CLOUDY    24  20  84 SW9       29.57F FOG     WCI  14
ROCK SPRINGS   FAIR      22  20  92 W14       29.57S WCI   9
RAWLINS        CLOUDY    26  21  81 SW14      29.55S WCI  14
LARAMIE        CLOUDY    20  15  81 E6        29.49F WCI  12
CHEYENNE       FAIR      34  20  56 NW7       29.46F WCI  28
TORRINGTON     FAIR      31  22  69 NW3       29.45F

$$




USA.gov is the U.S. government's official web portal to all federal, state and local government web resources and services.